Location: *
(38.9800°N, 16.0500°E)
Time: 21:39:30
(UTC+00:00)

Cosmos 1544 - Pass Details

Date: 07 April 2020
Orbit: 473 x 490 km, 82.5° (Epoch: 25 May)

Event Time Altitude Azimuth Distance (km) Brightness Sun altitude
Rises 02:28:02 0° 351° (N) 2,555 7.0 -23.2°
Reaches altitude 10° 02:30:08 10° 351° (N) 1,673 6.0 -22.8°
Enters shadow 02:33:01 54° 345° (NNW) 600 3.5 -22.3°
